Location: Acton
(51.4942°N, 0.2232°W)
Time: 08:13:48
(UTC+00:00)

X-37B - Pass Details

Date: 04 February 2022
Orbit: 328 x 343 km, 45.0° (Epoch: 15 May)

Event Time Altitude Azimuth Distance (km) Brightness Sun altitude
Rises 18:40:26 0° 259° (W) 2,120 6.1 -16.4°
Reaches altitude 10° 18:42:52 10° 238° (WSW) 1,277 4.2 -16.8°
Maximum altitude 18:44:50 17° 195° (SSW) 955 2.8 -17.1°
Enters shadow 18:45:49 15° 169° (S) 1,044 2.7 -17.3°
